Year,Month,Day,Hour,Minute,Value (Times are PST for temperature in C)
2016,04,01,00,00,10.10
2016,04,01,00,01,10.10
2016,04,01,00,02,10.10
2016,04,01,00,03,10.10
2016,04,01,00,04,10.10
2016,04,01,00,05,10.10
2016,04,01,00,06,10.10
2016,04,01,00,07,10.00
2016,04,01,00,08,9.90
2016,04,01,00,09,9.90
2016,04,01,00,10,9.90
2016,04,01,00,11,9.90
2016,04,01,00,12,9.90
2016,04,01,00,13,9.90
2016,04,01,00,14,9.90
2016,04,01,00,15,9.90
2016,04,01,00,16,9.90
2016,04,01,00,17,9.90
2016,04,01,00,18,9.90
2016,04,01,00,19,9.80
2016,04,01,00,20,9.80
2016,04,01,00,21,9.80
2016,04,01,00,22,9.80
2016,04,01,00,23,9.80
2016,04,01,00,24,9.70
2016,04,01,00,25,9.70
2016,04,01,00,26,9.70
2016,04,01,00,27,9.70
2016,04,01,00,28,9.70
2016,04,01,00,29,9.70
2016,04,01,00,30,9.70
2016,04,01,00,31,9.70
2016,04,01,00,32,9.60
2016,04,01,00,33,9.60
2016,04,01,00,34,9.60
2016,04,01,00,35,9.60
2016,04,01,00,36,9.60
2016,04,01,00,37,9.60
2016,04,01,00,38,9.50
2016,04,01,00,39,9.50
2016,04,01,00,40,9.50
2016,04,01,00,41,9.50
2016,04,01,00,42,9.50
2016,04,01,00,43,9.50
2016,04,01,00,44,9.40
2016,04,01,00,45,9.40
2016,04,01,00,46,9.40
2016,04,01,00,47,9.30
2016,04,01,00,48,9.30
2016,04,01,00,49,9.30
2016,04,01,00,50,9.30
2016,04,01,00,51,9.20
2016,04,01,00,52,9.20
2016,04,01,00,53,9.20
2016,04,01,00,54,9.20
2016,04,01,00,55,9.20
2016,04,01,00,56,9.20
2016,04,01,00,57,9.20
2016,04,01,00,58,9.20
2016,04,01,00,59,9.20
2016,04,01,01,00,9.20
2016,04,01,01,01,9.20
2016,04,01,01,02,9.20
2016,04,01,01,03,9.20
2016,04,01,01,04,9.10
2016,04,01,01,05,9.10
2016,04,01,01,06,9.10
2016,04,01,01,07,9.10
2016,04,01,01,08,9.10
2016,04,01,01,09,9.10
2016,04,01,01,10,9.10
2016,04,01,01,11,9.10
2016,04,01,01,12,9.10
2016,04,01,01,13,9.10
2016,04,01,01,14,9.10
2016,04,01,01,15,9.00
2016,04,01,01,16,9.00
2016,04,01,01,17,9.00
2016,04,01,01,18,9.00
2016,04,01,01,19,9.00
2016,04,01,01,20,8.90
2016,04,01,01,21,8.90
2016,04,01,01,22,8.90
2016,04,01,01,23,8.90
2016,04,01,01,24,8.80
2016,04,01,01,25,8.80
2016,04,01,01,26,8.80
2016,04,01,01,27,8.80
2016,04,01,01,28,8.80
2016,04,01,01,29,8.80
2016,04,01,01,30,8.80
2016,04,01,01,31,8.80
2016,04,01,01,32,8.80
2016,04,01,01,33,8.80
2016,04,01,01,34,8.80
2016,04,01,01,35,8.80
2016,04,01,01,36,8.80
2016,04,01,01,37,8.80
2016,04,01,01,38,8.80
2016,04,01,01,39,8.80
2016,04,01,01,40,8.80
2016,04,01,01,41,8.80
2016,04,01,01,42,8.70
2016,04,01,01,43,8.70
2016,04,01,01,44,8.70
2016,04,01,01,45,8.70
2016,04,01,01,46,8.70
2016,04,01,01,47,8.70
2016,04,01,01,48,8.70
2016,04,01,01,49,8.70
2016,04,01,01,50,8.70
2016,04,01,01,51,8.70
2016,04,01,01,52,8.70
2016,04,01,01,53,8.60
2016,04,01,01,54,8.60
2016,04,01,01,55,8.60
2016,04,01,01,56,8.60
2016,04,01,01,57,8.60
2016,04,01,01,58,8.60
2016,04,01,01,59,8.60
2016,04,01,02,00,8.50
2016,04,01,02,01,8.50
2016,04,01,02,02,8.60
2016,04,01,02,03,8.60
2016,04,01,02,04,8.50
2016,04,01,02,05,8.50
2016,04,01,02,06,8.50
2016,04,01,02,07,8.50
2016,04,01,02,08,8.50
2016,04,01,02,09,8.50
2016,04,01,02,10,8.60
2016,04,01,02,11,8.60
2016,04,01,02,12,8.60
2016,04,01,02,13,8.50
2016,04,01,02,14,8.50
2016,04,01,02,15,8.50
2016,04,01,02,16,8.40
2016,04,01,02,17,8.40
2016,04,01,02,18,8.40
2016,04,01,02,19,8.30
2016,04,01,02,20,8.30
2016,04,01,02,21,8.30
2016,04,01,02,22,8.20
2016,04,01,02,23,8.20
2016,04,01,02,24,8.20
2016,04,01,02,25,8.20
2016,04,01,02,26,8.20
2016,04,01,02,27,8.20
2016,04,01,02,28,8.10
2016,04,01,02,29,8.10
2016,04,01,02,30,8.10
2016,04,01,02,31,8.10
2016,04,01,02,32,8.10
2016,04,01,02,33,8.10
2016,04,01,02,34,8.20
2016,04,01,02,35,8.20
2016,04,01,02,36,8.10
2016,04,01,02,37,8.10
2016,04,01,02,38,8.10
2016,04,01,02,39,8.10
2016,04,01,02,40,8.10
2016,04,01,02,41,8.10
2016,04,01,02,42,8.10
2016,04,01,02,43,8.10
2016,04,01,02,44,8.10
2016,04,01,02,45,8.10
2016,04,01,02,46,8.10
2016,04,01,02,47,8.10
2016,04,01,02,48,8.00
2016,04,01,02,49,8.00
2016,04,01,02,50,8.00
2016,04,01,02,51,8.00
2016,04,01,02,52,8.00
2016,04,01,02,53,8.00
2016,04,01,02,54,7.90
2016,04,01,02,55,7.90
2016,04,01,02,56,7.90
2016,04,01,02,57,7.90
2016,04,01,02,58,7.80
2016,04,01,02,59,7.80
2016,04,01,03,00,7.80
2016,04,01,03,01,7.80
2016,04,01,03,02,7.80
2016,04,01,03,03,7.80
2016,04,01,03,04,7.80
2016,04,01,03,05,7.80
2016,04,01,03,06,7.70
2016,04,01,03,07,7.70
2016,04,01,03,08,7.70
2016,04,01,03,09,7.70
2016,04,01,03,10,7.70
2016,04,01,03,11,7.70
2016,04,01,03,12,7.70
2016,04,01,03,13,7.70
2016,04,01,03,14,7.60
2016,04,01,03,15,7.60
2016,04,01,03,16,7.60
2016,04,01,03,17,7.60
2016,04,01,03,18,7.60
2016,04,01,03,19,7.60
2016,04,01,03,20,7.60
2016,04,01,03,21,7.50
2016,04,01,03,22,7.50
2016,04,01,03,23,7.50
2016,04,01,03,24,7.50
2016,04,01,03,25,7.50
2016,04,01,03,26,7.50
2016,04,01,03,27,7.50
2016,04,01,03,28,7.50
2016,04,01,03,29,7.50
2016,04,01,03,30,7.50
2016,04,01,03,31,7.50
2016,04,01,03,32,7.40
2016,04,01,03,33,7.40
2016,04,01,03,34,7.40
2016,04,01,03,35,7.40
2016,04,01,03,36,7.40
2016,04,01,03,37,7.40
2016,04,01,03,38,7.30
2016,04,01,03,39,7.30
2016,04,01,03,40,7.30
2016,04,01,03,41,7.30
2016,04,01,03,42,7.30
2016,04,01,03,43,7.30
2016,04,01,03,44,7.30
2016,04,01,03,45,7.30
2016,04,01,03,46,7.30
2016,04,01,03,47,7.30
2016,04,01,03,48,7.30
2016,04,01,03,49,7.30
2016,04,01,03,50,7.30
2016,04,01,03,51,7.30
2016,04,01,03,52,7.30
2016,04,01,03,53,7.30
2016,04,01,03,54,7.30
2016,04,01,03,55,7.30
2016,04,01,03,56,7.30
2016,04,01,03,57,7.30
2016,04,01,03,58,7.20
2016,04,01,03,59,7.20
2016,04,01,04,00,7.20
2016,04,01,04,01,7.20
2016,04,01,04,02,7.20
2016,04,01,04,03,7.20
2016,04,01,04,04,7.20
2016,04,01,04,05,7.10
2016,04,01,04,06,7.10
2016,04,01,04,07,7.10
2016,04,01,04,08,7.10
2016,04,01,04,09,7.10
2016,04,01,04,10,7.00
2016,04,01,04,11,7.00
2016,04,01,04,12,7.00
2016,04,01,04,13,7.00
2016,04,01,04,14,7.00
2016,04,01,04,15,7.00
2016,04,01,04,16,7.00
2016,04,01,04,17,7.00
2016,04,01,04,18,7.00
2016,04,01,04,19,7.00
2016,04,01,04,20,7.00
2016,04,01,04,21,7.00
2016,04,01,04,22,7.00
2016,04,01,04,23,7.00
2016,04,01,04,24,7.00
2016,04,01,04,25,7.00
2016,04,01,04,26,7.00
2016,04,01,04,27,7.00
2016,04,01,04,28,7.00
2016,04,01,04,29,7.00
2016,04,01,04,30,7.00
2016,04,01,04,31,6.90
2016,04,01,04,32,6.90
2016,04,01,04,33,6.90
2016,04,01,04,34,6.90
2016,04,01,04,35,6.80
2016,04,01,04,36,6.80
2016,04,01,04,37,6.80
2016,04,01,04,38,6.80
2016,04,01,04,39,6.80
2016,04,01,04,40,6.80
2016,04,01,04,41,6.80
2016,04,01,04,42,6.80
2016,04,01,04,43,6.80
2016,04,01,04,44,6.80
2016,04,01,04,45,6.80
2016,04,01,04,46,6.80
2016,04,01,04,47,6.80
2016,04,01,04,48,6.80
2016,04,01,04,49,6.80
2016,04,01,04,50,6.80
2016,04,01,04,51,6.80
2016,04,01,04,52,6.80
2016,04,01,04,53,6.80
2016,04,01,04,54,6.80
2016,04,01,04,55,6.80
2016,04,01,04,56,6.80
2016,04,01,04,57,6.80
2016,04,01,04,58,6.80
2016,04,01,04,59,6.80
2016,04,01,05,00,6.80
2016,04,01,05,01,6.80
2016,04,01,05,02,6.80
2016,04,01,05,03,6.70
2016,04,01,05,04,6.70
2016,04,01,05,05,6.70
2016,04,01,05,06,6.60
2016,04,01,05,07,6.60
2016,04,01,05,08,6.60
2016,04,01,05,09,6.60
2016,04,01,05,10,6.60
2016,04,01,05,11,6.60
2016,04,01,05,12,6.60
2016,04,01,05,13,6.60
2016,04,01,05,14,6.60
2016,04,01,05,15,6.60
2016,04,01,05,16,6.60
2016,04,01,05,17,6.60
2016,04,01,05,18,6.60
2016,04,01,05,19,6.60
2016,04,01,05,20,6.60
2016,04,01,05,21,6.60
2016,04,01,05,22,6.60
2016,04,01,05,23,6.60
2016,04,01,05,24,6.70
2016,04,01,05,25,6.70
2016,04,01,05,26,6.70
2016,04,01,05,27,6.70
2016,04,01,05,28,6.70
2016,04,01,05,29,6.70
2016,04,01,05,30,6.70
2016,04,01,05,31,6.60
2016,04,01,05,32,6.60
2016,04,01,05,33,6.60
2016,04,01,05,34,6.60
2016,04,01,05,35,6.60
2016,04,01,05,36,6.60
2016,04,01,05,37,6.60
2016,04,01,05,38,6.60
2016,04,01,05,39,6.50
2016,04,01,05,40,6.40
2016,04,01,05,41,6.40
2016,04,01,05,42,6.40
2016,04,01,05,43,6.40
2016,04,01,05,44,6.40
2016,04,01,05,45,6.40
2016,04,01,05,46,6.40
2016,04,01,05,47,6.40
2016,04,01,05,48,6.40
2016,04,01,05,49,6.40
2016,04,01,05,50,6.40
2016,04,01,05,51,6.40
2016,04,01,05,52,6.40
2016,04,01,05,53,6.30
2016,04,01,05,54,6.30
2016,04,01,05,55,6.30
2016,04,01,05,56,6.30
2016,04,01,05,57,6.30
2016,04,01,05,58,6.30
2016,04,01,05,59,6.30
2016,04,01,06,00,6.30
2016,04,01,06,01,6.30
2016,04,01,06,02,6.30
2016,04,01,06,03,6.30
2016,04,01,06,04,6.30
2016,04,01,06,05,6.20
2016,04,01,06,06,6.20
2016,04,01,06,07,6.20
2016,04,01,06,08,6.20
2016,04,01,06,09,6.20
2016,04,01,06,10,6.20
2016,04,01,06,11,6.20
2016,04,01,06,12,6.20
2016,04,01,06,13,6.20
2016,04,01,06,14,6.20
2016,04,01,06,15,6.20
2016,04,01,06,16,6.20
2016,04,01,06,17,6.20
2016,04,01,06,18,6.20
2016,04,01,06,19,6.20
2016,04,01,06,20,6.20
2016,04,01,06,21,6.20
2016,04,01,06,22,6.20
2016,04,01,06,23,6.20
2016,04,01,06,24,6.20
2016,04,01,06,25,6.20
2016,04,01,06,26,6.20
2016,04,01,06,27,6.20
2016,04,01,06,28,6.20
2016,04,01,06,29,6.20
2016,04,01,06,30,6.20
2016,04,01,06,31,6.20
2016,04,01,06,32,6.20
2016,04,01,06,33,6.20
2016,04,01,06,34,6.20
2016,04,01,06,35,6.20
2016,04,01,06,36,6.20
2016,04,01,06,37,6.20
2016,04,01,06,38,6.20
2016,04,01,06,39,6.20
2016,04,01,06,40,6.20
2016,04,01,06,41,6.20
2016,04,01,06,42,6.20
2016,04,01,06,43,6.20
2016,04,01,06,44,6.20
2016,04,01,06,45,6.20
2016,04,01,06,46,6.20
2016,04,01,06,47,6.20
2016,04,01,06,50,6.10
2016,04,01,06,51,6.10
2016,04,01,06,52,6.10
2016,04,01,06,53,6.10
2016,04,01,06,54,6.10
2016,04,01,06,55,6.00
2016,04,01,06,56,6.00
2016,04,01,06,57,6.00
2016,04,01,06,58,6.00
2016,04,01,06,59,6.00
2016,04,01,07,00,6.00
2016,04,01,07,01,6.00
2016,04,01,07,02,5.90
2016,04,01,07,03,5.90
2016,04,01,07,04,5.90
2016,04,01,07,05,5.90
2016,04,01,07,06,5.90
2016,04,01,07,07,5.90
2016,04,01,07,08,5.90
2016,04,01,07,09,5.90
2016,04,01,07,10,5.90
2016,04,01,07,11,5.90
2016,04,01,07,12,5.90
2016,04,01,07,13,5.90
2016,04,01,07,14,5.90
2016,04,01,07,15,5.90
2016,04,01,07,16,5.90
2016,04,01,07,17,5.90
2016,04,01,07,18,6.00
2016,04,01,07,19,6.00
2016,04,01,07,20,6.10
2016,04,01,07,21,6.20
2016,04,01,07,22,6.20
2016,04,01,07,23,6.30
2016,04,01,07,24,6.40
2016,04,01,07,25,6.50
2016,04,01,07,26,6.60
2016,04,01,07,27,6.70
2016,04,01,07,28,6.80
2016,04,01,07,29,6.80
2016,04,01,07,30,6.80
2016,04,01,07,31,6.90
2016,04,01,07,32,7.00
2016,04,01,07,33,7.00
2016,04,01,07,34,7.10
2016,04,01,07,35,7.10
2016,04,01,07,36,7.10
2016,04,01,07,37,7.00
2016,04,01,07,38,7.00
2016,04,01,07,39,7.00
2016,04,01,07,40,6.90
2016,04,01,07,41,6.90
2016,04,01,07,42,6.80
2016,04,01,07,43,6.80
2016,04,01,07,44,6.80
2016,04,01,07,45,6.80
2016,04,01,07,46,6.80
2016,04,01,07,47,6.80
2016,04,01,07,48,6.80
2016,04,01,07,49,6.80
2016,04,01,07,50,6.80
2016,04,01,07,51,6.80
2016,04,01,07,52,6.80
2016,04,01,07,53,6.70
2016,04,01,07,54,6.70
2016,04,01,07,55,6.70
2016,04,01,07,56,6.70
2016,04,01,07,57,6.70
2016,04,01,07,58,6.70
2016,04,01,07,59,6.80
2016,04,01,08,00,6.80
2016,04,01,08,01,6.80
2016,04,01,08,02,6.80
2016,04,01,08,03,6.80
2016,04,01,08,04,6.90
2016,04,01,08,05,6.90
2016,04,01,08,06,7.00
2016,04,01,08,07,7.00
2016,04,01,08,08,7.10
2016,04,01,08,09,7.10
2016,04,01,08,10,7.10
2016,04,01,08,11,7.20
2016,04,01,08,12,7.20
2016,04,01,08,13,7.30
2016,04,01,08,14,7.30
2016,04,01,08,15,7.30
2016,04,01,08,16,7.40
2016,04,01,08,17,7.50
2016,04,01,08,18,7.60
2016,04,01,08,19,7.70
2016,04,01,08,20,7.80
2016,04,01,08,21,7.90
2016,04,01,08,22,8.00
2016,04,01,08,23,8.10
2016,04,01,08,24,8.20
2016,04,01,08,25,8.20
2016,04,01,08,26,8.20
2016,04,01,08,27,8.30
2016,04,01,08,28,8.30
2016,04,01,08,29,8.40
2016,04,01,08,30,8.40
2016,04,01,08,31,8.50
2016,04,01,08,32,8.50
2016,04,01,08,33,8.50
2016,04,01,08,34,8.60
2016,04,01,08,35,8.70
2016,04,01,08,36,8.70
2016,04,01,08,37,8.70
2016,04,01,08,38,8.70
2016,04,01,08,39,8.80
2016,04,01,08,40,8.90
2016,04,01,08,41,8.90
2016,04,01,08,42,9.00
2016,04,01,08,43,9.00
2016,04,01,08,44,9.10
2016,04,01,08,45,9.20
2016,04,01,08,46,9.20
2016,04,01,08,47,9.20
2016,04,01,08,48,9.30
2016,04,01,08,49,9.30
2016,04,01,08,50,9.40
2016,04,01,08,51,9.40
2016,04,01,08,52,9.40
2016,04,01,08,53,9.50
2016,04,01,08,54,9.60
2016,04,01,08,55,9.60
2016,04,01,08,56,9.60
2016,04,01,08,57,9.60
2016,04,01,08,58,9.60
2016,04,01,08,59,9.70
2016,04,01,09,00,9.70
2016,04,01,09,01,9.70
2016,04,01,09,02,9.70
2016,04,01,09,03,9.80
2016,04,01,09,04,9.80
2016,04,01,09,05,9.90
2016,04,01,09,06,9.90
2016,04,01,09,07,10.00
2016,04,01,09,08,10.10
2016,04,01,09,09,10.10
2016,04,01,09,10,10.10
2016,04,01,09,11,10.20
2016,04,01,09,12,10.20
2016,04,01,09,13,10.30
2016,04,01,09,14,10.30
2016,04,01,09,15,10.40
2016,04,01,09,16,10.50
2016,04,01,09,17,10.60
2016,04,01,09,18,10.60
2016,04,01,09,19,10.60
2016,04,01,09,20,10.70
2016,04,01,09,21,10.80
2016,04,01,09,22,10.80
2016,04,01,09,23,10.90
2016,04,01,09,24,11.00
2016,04,01,09,25,11.10
2016,04,01,09,26,11.20
2016,04,01,09,27,11.20
2016,04,01,09,28,11.30
2016,04,01,09,29,11.30
2016,04,01,09,30,11.40
2016,04,01,09,31,11.40
2016,04,01,09,32,11.50
2016,04,01,09,33,11.60
2016,04,01,09,34,11.60
2016,04,01,09,35,11.70
2016,04,01,09,36,11.80
2016,04,01,09,37,11.80
2016,04,01,09,38,11.90
2016,04,01,09,39,11.90
2016,04,01,09,40,12.00
2016,04,01,09,41,12.10
2016,04,01,09,42,12.20
2016,04,01,09,43,12.30
2016,04,01,09,44,12.50
2016,04,01,09,45,12.60
2016,04,01,09,46,12.60
2016,04,01,09,47,12.70
2016,04,01,09,48,12.80
2016,04,01,09,49,12.80
2016,04,01,09,50,12.90
2016,04,01,09,51,13.00
2016,04,01,09,52,13.10
2016,04,01,09,53,13.20
2016,04,01,09,54,13.30
2016,04,01,09,55,13.50
2016,04,01,09,56,13.60
2016,04,01,09,57,13.70
2016,04,01,09,58,13.70
2016,04,01,09,59,13.80
2016,04,01,10,00,13.80
2016,04,01,10,01,13.80
2016,04,01,10,02,13.90
2016,04,01,10,03,13.90
2016,04,01,10,04,14.00
2016,04,01,10,05,14.00
2016,04,01,10,06,14.10
2016,04,01,10,07,14.10
2016,04,01,10,08,14.10
2016,04,01,10,09,14.20
2016,04,01,10,10,14.20
2016,04,01,10,11,14.10
2016,04,01,10,12,14.00
2016,04,01,10,13,13.90
2016,04,01,10,14,13.90
2016,04,01,10,15,13.80
2016,04,01,10,16,13.80
2016,04,01,10,17,13.70
2016,04,01,10,18,13.70
2016,04,01,10,19,13.70
2016,04,01,10,20,13.70
2016,04,01,10,21,13.70
2016,04,01,10,22,13.70
2016,04,01,10,23,13.80
2016,04,01,10,24,14.00
2016,04,01,10,25,14.10
2016,04,01,10,26,14.10
2016,04,01,10,27,14.20
2016,04,01,10,28,14.20
2016,04,01,10,29,14.20
2016,04,01,10,30,14.20
2016,04,01,10,31,14.20
2016,04,01,10,32,14.20
2016,04,01,10,33,14.30
2016,04,01,10,34,14.40
2016,04,01,10,35,14.30
2016,04,01,10,36,14.30
2016,04,01,10,37,14.30
2016,04,01,10,38,14.30
2016,04,01,10,39,14.20
2016,04,01,10,40,14.20
2016,04,01,10,41,14.20
2016,04,01,10,42,14.20
2016,04,01,10,43,14.20
2016,04,01,10,44,14.30
2016,04,01,10,45,14.40
2016,04,01,10,46,14.40
2016,04,01,10,47,14.40
2016,04,01,10,48,14.40
2016,04,01,10,49,14.40
2016,04,01,10,50,14.40
2016,04,01,10,51,14.40
2016,04,01,10,52,14.40
2016,04,01,10,53,14.40
2016,04,01,10,54,14.50
2016,04,01,10,55,14.40
2016,04,01,10,56,14.30
2016,04,01,10,57,14.20
2016,04,01,10,58,14.10
2016,04,01,10,59,14.00
2016,04,01,11,00,13.90
2016,04,01,11,01,13.80
2016,04,01,11,02,13.80
2016,04,01,11,03,13.90
2016,04,01,11,04,13.90
2016,04,01,11,05,13.90
2016,04,01,11,06,13.80
2016,04,01,11,07,13.70
2016,04,01,11,08,13.70
2016,04,01,11,09,13.70
2016,04,01,11,10,13.80
2016,04,01,11,11,13.90
2016,04,01,11,12,13.90
2016,04,01,11,13,14.10
2016,04,01,11,14,14.30
2016,04,01,11,15,14.50
2016,04,01,11,16,14.60
2016,04,01,11,17,14.60
2016,04,01,11,18,14.70
2016,04,01,11,19,14.80
2016,04,01,11,20,14.80
2016,04,01,11,21,14.80
2016,04,01,11,22,14.90
2016,04,01,11,23,15.00
2016,04,01,11,24,15.10
2016,04,01,11,25,15.10
2016,04,01,11,26,15.20
2016,04,01,11,27,15.20
2016,04,01,11,28,15.30
2016,04,01,11,29,15.20
2016,04,01,11,30,15.30
2016,04,01,11,31,15.30
2016,04,01,11,32,15.40
2016,04,01,11,33,15.60
2016,04,01,11,34,15.70
2016,04,01,11,35,15.80
2016,04,01,11,36,15.80
2016,04,01,11,37,15.60
2016,04,01,11,38,15.40
2016,04,01,11,39,15.30
2016,04,01,11,40,15.10
2016,04,01,11,41,15.00
2016,04,01,11,42,14.80
2016,04,01,11,43,14.70
2016,04,01,11,44,14.60
2016,04,01,11,45,14.60
2016,04,01,11,46,14.40
2016,04,01,11,47,14.30
2016,04,01,11,48,14.40
2016,04,01,11,49,14.50
2016,04,01,11,50,14.60
2016,04,01,11,51,14.80
2016,04,01,11,52,14.70
2016,04,01,11,53,14.70
2016,04,01,11,54,14.80
2016,04,01,11,55,14.80
2016,04,01,11,56,14.80
2016,04,01,11,57,14.80
2016,04,01,11,58,14.70
2016,04,01,11,59,14.50
2016,04,01,12,00,14.40
2016,04,01,12,01,14.40
2016,04,01,12,02,14.30
2016,04,01,12,03,14.20
2016,04,01,12,04,14.10
2016,04,01,12,05,14.10
2016,04,01,12,06,14.20
2016,04,01,12,07,14.20
2016,04,01,12,08,14.20
2016,04,01,12,09,14.30
2016,04,01,12,10,14.30
2016,04,01,12,11,14.30
2016,04,01,12,12,14.30
2016,04,01,12,13,14.50
2016,04,01,12,14,14.50
2016,04,01,12,15,14.50
2016,04,01,12,16,14.40
2016,04,01,12,17,14.30
2016,04,01,12,18,14.20
2016,04,01,12,19,14.20
2016,04,01,12,20,14.30
2016,04,01,12,21,14.40
2016,04,01,12,22,14.40
2016,04,01,12,23,14.50
2016,04,01,12,24,14.50
2016,04,01,12,25,14.60
2016,04,01,12,26,14.60
2016,04,01,12,27,14.60
2016,04,01,12,28,14.60
2016,04,01,12,29,14.70
2016,04,01,12,30,14.80
2016,04,01,12,31,14.80
2016,04,01,12,32,14.80
2016,04,01,12,33,14.80
2016,04,01,12,34,14.80
2016,04,01,12,35,14.80
2016,04,01,12,36,14.80
2016,04,01,12,37,15.00
2016,04,01,12,38,15.00
2016,04,01,12,39,15.00
2016,04,01,12,40,15.00
2016,04,01,12,41,15.00
2016,04,01,12,42,14.90
2016,04,01,12,43,14.80
2016,04,01,12,44,14.80
2016,04,01,12,45,14.70
2016,04,01,12,46,14.70
2016,04,01,12,47,14.70
2016,04,01,12,48,14.70
2016,04,01,12,49,14.80
2016,04,01,12,50,14.80
2016,04,01,12,51,14.90
2016,04,01,12,52,15.00
2016,04,01,12,53,15.00
2016,04,01,12,54,14.90
2016,04,01,12,55,14.90
2016,04,01,12,56,14.90
2016,04,01,12,57,14.90
2016,04,01,12,58,14.90
2016,04,01,12,59,14.90
2016,04,01,13,00,14.90
2016,04,01,13,01,14.90
2016,04,01,13,02,14.90
2016,04,01,13,03,14.90
2016,04,01,13,04,14.90
2016,04,01,13,05,15.00
2016,04,01,13,06,15.10
2016,04,01,13,07,15.10
2016,04,01,13,08,15.00
2016,04,01,13,09,15.00
2016,04,01,13,10,15.00
2016,04,01,13,11,15.00
2016,04,01,13,12,15.00
2016,04,01,13,13,15.00
2016,04,01,13,14,14.90
2016,04,01,13,15,14.80
2016,04,01,13,16,14.80
2016,04,01,13,17,14.80
2016,04,01,13,18,15.00
2016,04,01,13,19,15.10
2016,04,01,13,20,15.20
2016,04,01,13,21,15.30
2016,04,01,13,22,15.30
2016,04,01,13,23,15.30
2016,04,01,13,24,15.30
2016,04,01,13,25,15.40
2016,04,01,13,26,15.50
2016,04,01,13,27,15.60
2016,04,01,13,28,15.60
2016,04,01,13,29,15.60
2016,04,01,13,30,15.60
2016,04,01,13,31,15.60
2016,04,01,13,32,15.50
2016,04,01,13,33,15.50
2016,04,01,13,34,15.50
2016,04,01,13,35,15.60
2016,04,01,13,36,15.70
2016,04,01,13,37,15.80
2016,04,01,13,38,15.90
2016,04,01,13,39,15.90
2016,04,01,13,40,16.10
2016,04,01,13,41,16.10
2016,04,01,13,42,16.10
2016,04,01,13,43,16.10
2016,04,01,13,44,16.20
2016,04,01,13,45,16.20
2016,04,01,13,46,16.40
2016,04,01,13,47,16.60
2016,04,01,13,48,16.70
2016,04,01,13,49,16.70
2016,04,01,13,50,16.60
2016,04,01,13,51,16.60
2016,04,01,13,52,16.40
2016,04,01,13,53,16.50
2016,04,01,13,54,16.60
2016,04,01,13,55,16.70
2016,04,01,13,56,16.70
2016,04,01,13,57,16.70
2016,04,01,13,58,16.70
2016,04,01,13,59,16.70
2016,04,01,14,00,16.60
2016,04,01,14,01,16.50
2016,04,01,14,02,16.40
2016,04,01,14,03,16.30
2016,04,01,14,04,16.30
2016,04,01,14,05,16.20
2016,04,01,14,06,16.30
2016,04,01,14,07,16.30
2016,04,01,14,08,16.30
2016,04,01,14,09,16.40
2016,04,01,14,10,16.40
2016,04,01,14,11,16.60
2016,04,01,14,12,16.70
2016,04,01,14,13,16.90
2016,04,01,14,14,17.00
2016,04,01,14,15,17.00
2016,04,01,14,16,17.00
2016,04,01,14,17,17.00
2016,04,01,14,18,17.00
2016,04,01,14,19,17.00
2016,04,01,14,20,17.10
2016,04,01,14,21,17.30
2016,04,01,14,22,17.30
2016,04,01,14,23,17.30
2016,04,01,14,24,17.30
2016,04,01,14,25,17.40
2016,04,01,14,26,17.40
2016,04,01,14,27,17.50
2016,04,01,14,28,17.50
2016,04,01,14,29,17.60
2016,04,01,14,30,17.60
2016,04,01,14,31,17.50
2016,04,01,14,32,17.50
2016,04,01,14,33,17.40
2016,04,01,14,34,17.30
2016,04,01,14,35,17.30
2016,04,01,14,36,17.30
2016,04,01,14,37,17.30
2016,04,01,14,38,17.30
2016,04,01,14,39,17.30
2016,04,01,14,40,17.30
2016,04,01,14,41,17.20
2016,04,01,14,42,17.10
2016,04,01,14,43,17.00
2016,04,01,14,44,16.70
2016,04,01,14,45,16.70
2016,04,01,14,46,16.60
2016,04,01,14,47,16.50
2016,04,01,14,48,16.40
2016,04,01,14,49,16.60
2016,04,01,14,50,16.70
2016,04,01,14,51,16.80
2016,04,01,14,52,16.80
2016,04,01,14,53,16.80
2016,04,01,14,54,16.70
2016,04,01,14,55,16.70
2016,04,01,14,56,16.60
2016,04,01,14,57,16.50
2016,04,01,14,58,16.30
2016,04,01,14,59,16.20
2016,04,01,15,00,16.20
2016,04,01,15,01,16.30
2016,04,01,15,02,16.20
2016,04,01,15,03,16.20
2016,04,01,15,04,16.10
2016,04,01,15,05,16.10
2016,04,01,15,06,16.10
2016,04,01,15,07,16.10
2016,04,01,15,08,16.10
2016,04,01,15,09,16.10
2016,04,01,15,10,16.10
2016,04,01,15,11,16.10
2016,04,01,15,12,16.20
2016,04,01,15,13,16.30
2016,04,01,15,14,16.30
2016,04,01,15,15,16.30
2016,04,01,15,16,16.20
2016,04,01,15,17,16.20
2016,04,01,15,18,16.10
2016,04,01,15,19,16.20
2016,04,01,15,20,16.30
2016,04,01,15,21,16.30
2016,04,01,15,22,16.30
2016,04,01,15,23,16.20
2016,04,01,15,24,16.10
2016,04,01,15,25,16.10
2016,04,01,15,26,16.10
2016,04,01,15,27,16.10
2016,04,01,15,28,16.10
2016,04,01,15,29,16.20
2016,04,01,15,30,16.20
2016,04,01,15,31,16.20
2016,04,01,15,32,16.10
2016,04,01,15,33,16.10
2016,04,01,15,34,16.10
2016,04,01,15,35,16.10
2016,04,01,15,36,15.90
2016,04,01,15,37,15.90
2016,04,01,15,38,15.80
2016,04,01,15,39,15.80
2016,04,01,15,40,15.80
2016,04,01,15,41,15.80
2016,04,01,15,42,15.70
2016,04,01,15,43,15.70
2016,04,01,15,44,15.70
2016,04,01,15,45,15.60
2016,04,01,15,46,15.60
2016,04,01,15,47,15.80
2016,04,01,15,48,15.80
2016,04,01,15,49,16.00
2016,04,01,15,50,16.10
2016,04,01,15,51,16.10
2016,04,01,15,52,16.10
2016,04,01,15,53,16.20
2016,04,01,15,54,16.20
2016,04,01,15,55,16.20
2016,04,01,15,56,16.30
2016,04,01,15,57,16.30
2016,04,01,15,58,16.30
2016,04,01,15,59,16.20
2016,04,01,16,00,16.20
2016,04,01,16,01,16.10
2016,04,01,16,02,16.20
2016,04,01,16,03,16.20
2016,04,01,16,04,16.20
2016,04,01,16,05,16.20
2016,04,01,16,06,16.20
2016,04,01,16,07,16.30
2016,04,01,16,08,16.40
2016,04,01,16,09,16.40
2016,04,01,16,10,16.30
2016,04,01,16,11,16.40
2016,04,01,16,12,16.50
2016,04,01,16,13,16.60
2016,04,01,16,14,16.60
2016,04,01,16,15,16.70
2016,04,01,16,16,16.70
2016,04,01,16,17,16.70
2016,04,01,16,18,16.70
2016,04,01,16,19,16.80
2016,04,01,16,20,16.80
2016,04,01,16,21,16.80
2016,04,01,16,22,16.70
2016,04,01,16,23,16.80
2016,04,01,16,24,16.80
2016,04,01,16,25,16.90
2016,04,01,16,26,16.80
2016,04,01,16,27,16.70
2016,04,01,16,28,16.80
2016,04,01,16,29,16.80
2016,04,01,16,30,16.90
2016,04,01,16,31,16.90
2016,04,01,16,32,16.90
2016,04,01,16,33,16.90
2016,04,01,16,34,16.90
2016,04,01,16,35,16.80
2016,04,01,16,36,16.80
2016,04,01,16,37,16.80
2016,04,01,16,38,16.70
2016,04,01,16,39,16.70
2016,04,01,16,40,16.70
2016,04,01,16,41,16.70
2016,04,01,16,42,16.70
2016,04,01,16,43,16.70
2016,04,01,16,44,16.70
2016,04,01,16,45,16.80
2016,04,01,16,46,16.90
2016,04,01,16,47,16.90
2016,04,01,16,48,17.00
2016,04,01,16,49,17.00
2016,04,01,16,50,17.00
2016,04,01,16,51,17.00
2016,04,01,16,52,17.00
2016,04,01,16,53,17.00
2016,04,01,16,54,17.10
2016,04,01,16,55,17.10
2016,04,01,16,56,17.20
2016,04,01,16,57,17.20
2016,04,01,16,58,17.20
2016,04,01,16,59,17.30
2016,04,01,17,00,17.30
2016,04,01,17,01,17.30
2016,04,01,17,02,17.30
2016,04,01,17,03,17.30
2016,04,01,17,04,17.30
2016,04,01,17,05,17.30
2016,04,01,17,06,17.30
2016,04,01,17,07,17.30
2016,04,01,17,08,17.40
2016,04,01,17,09,17.50
2016,04,01,17,10,17.60
2016,04,01,17,11,17.60
2016,04,01,17,12,17.70
2016,04,01,17,13,17.80
2016,04,01,17,14,17.90
2016,04,01,17,15,18.00
2016,04,01,17,16,18.10
2016,04,01,17,17,18.20
2016,04,01,17,18,18.30
2016,04,01,17,19,18.40
2016,04,01,17,20,18.50
2016,04,01,17,21,18.60
2016,04,01,17,22,18.70
2016,04,01,17,23,18.70
2016,04,01,17,24,18.80
2016,04,01,17,25,18.80
2016,04,01,17,26,18.90
2016,04,01,17,27,18.90
2016,04,01,17,28,19.00
2016,04,01,17,29,19.10
2016,04,01,17,30,19.10
2016,04,01,17,31,19.10
2016,04,01,17,32,19.10
2016,04,01,17,33,19.10
2016,04,01,17,34,19.10
2016,04,01,17,35,19.10
2016,04,01,17,36,19.10
2016,04,01,17,37,19.10
2016,04,01,17,38,19.10
2016,04,01,17,39,19.20
2016,04,01,17,40,19.20
2016,04,01,17,41,19.30
2016,04,01,17,42,19.30
2016,04,01,17,43,19.30
2016,04,01,17,44,19.30